Date String (YYYY-MM-DD hh:mm:ss) UTC,Instrument flags,absolute air pressure of the measurement (hPa),sample flow rate (lpm),inlet stack bypass flow (lpm),air temperature of the measurement (°C),ambient temperature measured by the external sensor (°C),aerosol sample conditioner tube jacket temperature (°C),OPC LED temperature (°C),internal box temperature (°C),relative humidity of the measurement (%),span deviation,mass concentration of particles derived from Lorenz-Mie calculation of OPC scattering (μg/m³),mass concentration of particles derived from Lorenz-Mie calculation of OPC scattering (μg/m³),mass concentration of particles derived from Lorenz-Mie calculation of OPC scattering (μg/m³)
DateTimeUTC,F1_M11,P_M11,Q1_M11,Q2_M11,T1_M11,T2_M11,T3_M11,T4_M11,T5_M11,U1_M11,ZSPAN_M11,X0_M11,X2_M11,X1_M11
2024-02-11 13:00:00,SystemResetWarning,0828.1,5.01,000.00,018.7,018.7,000.0,027.0,020.3,11.7,0000.0,0004.92,0004.15,0004.09
2024-02-11 13:01:00,SystemResetWarning,0828.2,5.01,000.00,018.6,018.4,000.0,027.0,020.1,11.7,0000.0,0004.96,0004.16,0004.09
2024-02-11 13:02:00,SystemResetWarning,0828.1,5.00,000.00,018.5,018.2,000.0,026.9,020.0,11.7,0000.0,0005.05,0004.18,0004.09
2024-02-11 13:03:00,SystemResetWarning,0828.2,5.00,000.00,018.5,018.0,000.0,026.9,020.0,11.6,0000.0,0005.07,0004.19,0004.10
2024-02-11 13:04:00,SystemResetWarning,0828.2,5.00,000.00,018.4,017.9,000.0,026.9,020.0,11.6,0000.0,0005.09,0004.19,0004.11
2024-02-11 13:05:00,SystemResetWarning,0828.2,4.99,000.00,018.4,017.7,000.0,026.9,020.0,11.6,0000.0,0005.10,0004.19,0004.11
2024-02-11 13:06:00,SystemResetWarning,0828.2,5.00,000.00,018.4,017.6,000.0,026.9,020.0,11.6,0000.0,0005.10,0004.20,0004.12
2024-02-11 13:07:00,SystemResetWarning,0828.2,5.01,000.00,018.3,017.5,000.0,026.9,020.0,11.6,0000.0,0005.06,0004.19,0004.12
2024-02-11 13:08:00,SystemResetWarning,0828.2,5.00,000.00,018.3,017.5,000.0,027.0,020.0,11.6,0000.0,0005.00,0004.17,0004.11
2024-02-11 13:09:00,SystemResetWarning,0828.2,5.00,000.00,018.3,017.4,000.0,026.9,020.0,11.6,0000.0,0004.93,0004.15,0004.10
2024-02-11 13:10:00,SystemResetWarning,0828.2,5.00,000.00,018.3,017.4,000.0,027.0,020.0,11.6,0000.0,0004.92,0004.15,0004.10
2024-02-11 13:11:00,SystemResetWarning,0828.2,5.00,000.00,018.4,018.0,000.0,027.0,020.4,11.6,0000.0,0004.90,0004.14,0004.09
2024-02-11 13:12:00,SystemResetWarning,0828.2,4.99,000.00,018.6,018.7,000.0,027.1,020.7,11.5,0000.0,0004.89,0004.13,0004.09
2024-02-11 13:13:00,SystemResetWarning,0828.3,5.00,000.00,018.6,018.7,000.0,027.0,020.6,11.5,0000.0,0004.85,0004.12,0004.09
2024-02-11 13:14:00,SystemResetWarning,0828.3,5.00,000.00,018.6,018.5,000.0,027.0,020.3,11.6,0000.0,0004.97,0004.15,0004.09
2024-02-11 13:15:00,SystemResetWarning,0828.2,5.00,000.00,018.5,018.3,000.0,026.9,020.1,11.6,0000.0,0005.00,0004.16,0004.09
2024-02-11 13:16:00,SystemResetWarning,0828.2,5.00,000.00,018.4,018.1,000.0,026.9,020.0,11.6,0000.0,0005.02,0004.17,0004.10
2024-02-11 13:17:00,SystemResetWarning,0828.2,5.00,000.00,018.4,017.9,000.0,026.9,020.0,11.7,0000.0,0005.09,0004.18,0004.10
2024-02-11 13:18:00,SystemResetWarning,0828.3,5.00,000.00,018.4,017.8,000.0,026.9,020.0,11.7,0000.0,0005.10,0004.18,0004.09
2024-02-11 13:19:00,SystemResetWarning,0828.3,5.00,000.00,018.3,017.7,000.0,026.9,020.0,11.7,0000.0,0005.12,0004.18,0004.08
2024-02-11 13:20:00,SystemResetWarning,0828.3,5.01,000.00,018.3,017.6,000.0,026.9,020.0,11.8,0000.0,0005.16,0004.19,0004.09
2024-02-11 13:21:00,SystemResetWarning,0828.3,5.01,000.00,018.3,017.5,000.0,026.9,020.0,11.8,0000.0,0005.18,0004.20,0004.10
2024-02-11 13:22:00,SystemResetWarning,0828.3,5.00,000.00,018.3,017.5,000.0,026.9,020.0,11.8,0000.0,0005.22,0004.21,0004.11
2024-02-11 13:23:00,SystemResetWarning,0828.3,5.00,000.00,018.3,017.5,000.0,026.9,020.1,11.7,0000.0,0005.24,0004.23,0004.13
2024-02-11 13:24:00,SystemResetWarning,0828.3,5.01,000.00,018.4,018.2,000.0,027.0,020.4,11.6,0000.0,0005.21,0004.23,0004.14
2024-02-11 13:25:00,SystemResetWarning,0828.4,5.00,000.00,018.6,018.9,000.0,027.1,020.9,11.5,0000.0,0005.11,0004.21,0004.14
2024-02-11 13:26:00,SystemResetWarning,0828.4,5.00,000.00,018.8,019.1,000.0,027.1,020.9,11.4,0000.0,0005.06,0004.20,0004.14
2024-02-11 13:27:00,SystemResetWarning,0828.3,5.00,000.00,018.7,018.9,000.0,027.0,020.6,11.4,0000.0,0005.01,0004.19,0004.14
2024-02-11 13:28:00,SystemResetWarning,0828.3,5.00,000.00,018.7,018.7,000.0,027.0,020.4,11.4,0000.0,0004.92,0004.17,0004.13
2024-02-11 13:29:00,SystemResetWarning,0828.3,5.01,000.00,018.6,018.4,000.0,026.9,020.2,11.4,0000.0,0004.93,0004.18,0004.13
2024-02-11 13:30:00,SystemResetWarning,0828.3,5.01,000.00,018.5,018.2,000.0,026.9,020.0,11.5,0000.0,0004.92,0004.19,0004.14
2024-02-11 13:31:00,SystemResetWarning,0828.3,5.00,000.00,018.5,018.1,000.0,026.9,020.0,11.6,0000.0,0004.92,0004.19,0004.14
2024-02-11 13:32:00,SystemResetWarning,0828.3,5.00,000.00,018.4,017.9,000.0,026.9,020.0,11.9,0000.0,0004.90,0004.17,0004.13
2024-02-11 13:33:00,SystemResetWarning,0828.4,4.99,000.00,018.4,017.8,000.0,026.9,020.0,12.1,0000.0,0004.85,0004.16,0004.11
2024-02-11 13:34:00,SystemResetWarning,0828.4,4.99,000.00,018.4,017.7,000.0,026.9,020.0,11.9,0000.0,0004.84,0004.15,0004.10
2024-02-11 13:35:00,SystemResetWarning,0828.4,4.99,000.00,018.3,017.6,000.0,026.9,020.0,11.8,0000.0,0004.88,0004.16,0004.10
2024-02-11 13:36:00,SystemResetWarning,0828.4,4.99,000.00,018.3,017.5,000.0,026.9,020.0,11.7,0000.0,0004.86,0004.16,0004.11
2024-02-11 13:37:00,SystemResetWarning,0828.4,5.01,000.00,018.3,017.6,000.0,027.0,020.1,11.7,0000.0,0004.94,0004.20,0004.15
2024-02-11 13:38:00,SystemResetWarning,0828.4,5.02,000.00,018.5,018.3,000.0,027.1,020.5,11.5,0000.0,0005.04,0004.26,0004.21
2024-02-11 13:39:00,SystemResetWarning,0828.4,4.98,000.00,018.7,019.0,000.0,027.1,021.0,11.4,0000.0,0005.12,0004.30,0004.25
2024-02-11 13:40:00,SystemResetWarning,0828.4,5.00,000.00,018.8,019.1,000.0,027.1,020.9,11.2,0000.0,0005.11,0004.30,0004.25
2024-02-11 13:41:00,SystemResetWarning,0828.4,5.01,000.00,018.8,018.9,000.0,027.1,020.6,11.2,0000.0,0005.11,0004.29,0004.24
2024-02-11 13:42:00,SystemResetWarning,0828.4,5.00,000.00,018.7,018.7,000.0,027.0,020.4,11.2,0000.0,0005.32,0004.28,0004.23
2024-02-11 13:43:00,SystemResetWarning,0828.4,5.00,000.00,018.6,018.4,000.0,027.0,020.2,11.2,0000.0,0005.80,0004.27,0004.22
2024-02-11 13:44:00,SystemResetWarning,0828.4,4.99,000.00,018.5,018.2,000.0,026.9,020.0,11.3,0000.0,0005.80,0004.26,0004.21
2024-02-11 13:45:00,SystemResetWarning,0828.4,4.99,000.00,018.5,018.1,000.0,026.9,020.0,11.3,0000.0,0005.79,0004.26,0004.20
2024-02-11 13:46:00,SystemResetWarning,0828.5,5.01,000.00,018.4,017.9,000.0,026.9,020.0,11.3,0000.0,0005.70,0004.22,0004.17
2024-02-11 13:47:00,SystemResetWarning,0828.5,5.00,000.00,018.4,017.8,000.0,026.9,020.0,11.3,0000.0,0005.65,0004.19,0004.15
2024-02-11 13:48:00,SystemResetWarning,0828.5,5.01,000.00,018.4,017.7,000.0,027.0,020.0,11.3,0000.0,0005.60,0004.15,0004.10
2024-02-11 13:49:00,SystemResetWarning,0828.6,5.00,000.00,018.3,017.6,000.0,027.0,020.0,11.2,0000.0,0005.47,0004.07,0004.01
2024-02-11 13:50:00,SystemResetWarning,0828.6,5.00,000.00,018.3,017.5,000.0,027.0,020.0,11.2,0000.0,0005.34,0004.00,0003.95
2024-02-11 13:51:00,SystemResetWarning,0828.6,5.00,000.00,018.3,017.4,000.0,027.0,020.0,11.2,0000.0,0005.27,0003.95,0003.91
2024-02-11 13:52:00,SystemResetWarning,0828.6,5.00,000.00,018.3,017.6,000.0,027.0,020.1,11.2,0000.0,0005.24,0003.93,0003.89
2024-02-11 13:53:00,SystemResetWarning,0828.6,5.00,000.00,018.5,018.3,000.0,027.1,020.5,11.1,0000.0,0005.23,0003.93,0003.89
2024-02-11 13:54:00,SystemResetWarning,0828.6,5.00,000.00,018.7,019.0,000.0,027.2,021.0,11.0,0000.0,0004.53,0003.92,0003.88
2024-02-11 13:55:00,SystemResetWarning,0828.6,5.00,000.00,018.8,019.1,000.0,027.1,020.9,10.9,0000.0,0004.45,0003.90,0003.87
2024-02-11 13:56:00,SystemResetWarning,0828.6,4.99,000.00,018.7,018.8,000.0,027.1,020.5,10.9,0000.0,0004.47,0003.90,0003.86
2024-02-11 13:57:00,SystemResetWarning,0828.6,4.99,000.00,018.7,018.6,000.0,027.0,020.3,11.0,0000.0,0004.57,0003.91,0003.85
2024-02-11 13:58:00,SystemResetWarning,0828.6,4.99,000.00,018.6,018.4,000.0,027.0,020.1,11.0,0000.0,0004.61,0003.91,0003.84
2024-02-11 13:59:00,SystemResetWarning,0828.6,5.00,000.00,018.5,018.2,000.0,027.0,020.0,11.1,0000.0,0004.57,0003.90,0003.84
